Time,TemperatureF,DewpointF,PressureIn,WindDirection,WindDirectionDegrees,WindSpeedMPH,WindSpeedGustMPH,Humidity,HourlyPrecipIn,Conditions,Clouds,dailyrainin,SoftwareType,DateUTC
2013-04-22 00:00:00,54.2,41.1,30.26,SSE,163,5.0,13.0,61,0.00,,SKC,0.00,VWS V12.07,2013-04-22 05:00:00,
2013-04-22 00:06:00,54.0,40.9,30.26,SE,139,6.0,10.0,61,0.00,,SKC,0.00,VWS V12.07,2013-04-22 05:06:00,
2013-04-22 00:13:00,53.9,40.8,30.26,SSE,163,8.0,12.0,61,0.00,,SKC,0.00,VWS V12.07,2013-04-22 05:13:00,
2013-04-22 00:18:00,53.8,40.7,30.26,SE,142,3.0,12.0,61,0.00,,SKC,0.00,VWS V12.07,2013-04-22 05:18:00,
2013-04-22 00:23:00,53.6,40.9,30.26,SE,141,4.0,12.0,62,0.00,,SKC,0.00,VWS V12.07,2013-04-22 05:23:00,
2013-04-22 00:30:00,53.3,40.6,30.26,SE,138,6.0,12.0,62,0.00,,SKC,0.00,VWS V12.07,2013-04-22 05:30:00,
2013-04-22 00:38:00,53.0,40.3,30.26,SSE,150,8.0,9.0,62,0.00,,SKC,0.00,VWS V12.07,2013-04-22 05:38:00,
2013-04-22 00:43:00,52.9,40.2,30.26,SSE,165,5.0,9.0,62,0.00,,SKC,0.00,VWS V12.07,2013-04-22 05:43:00,
2013-04-22 00:48:00,52.8,40.2,30.26,SSE,156,3.0,9.0,62,0.00,,SKC,0.00,VWS V12.07,2013-04-22 05:48:00,
2013-04-22 00:53:00,52.7,40.1,30.26,SE,143,3.0,9.0,62,0.00,,SKC,0.00,VWS V12.07,2013-04-22 05:53:00,
2013-04-22 01:00:00,52.4,39.8,30.26,SE,132,7.0,9.0,62,0.00,,SKC,0.00,VWS V12.07,2013-04-22 06:00:00,
2013-04-22 01:06:00,52.4,39.8,30.26,SSE,160,3.0,8.0,62,0.00,,SKC,0.00,VWS V12.07,2013-04-22 06:06:00,
2013-04-22 01:11:00,52.4,39.8,30.26,SSE,148,3.0,8.0,62,0.00,,SKC,0.00,VWS V12.07,2013-04-22 06:11:00,
2013-04-22 01:18:00,52.4,39.8,30.27,South,187,3.0,8.0,62,0.00,,SKC,0.00,VWS V12.07,2013-04-22 06:18:00,
2013-04-22 01:24:00,52.4,39.4,30.27,South,173,2.0,8.0,61,0.00,,SKC,0.00,VWS V12.07,2013-04-22 06:24:00,
2013-04-22 01:30:00,52.2,39.6,30.27,SE,141,3.0,8.0,62,0.00,,SKC,0.00,VWS V12.07,2013-04-22 06:30:00,
2013-04-22 01:35:00,52.1,39.5,30.27,SSE,159,4.0,6.0,62,0.00,,SKC,0.00,VWS V12.07,2013-04-22 06:35:00,
2013-04-22 01:41:00,52.1,39.5,30.27,SSE,165,1.0,8.0,62,0.00,,SKC,0.00,VWS V12.07,2013-04-22 06:41:00,
2013-04-22 01:48:00,52.1,39.5,30.27,South,188,1.0,8.0,62,0.00,,SKC,0.00,VWS V12.07,2013-04-22 06:48:00,
2013-04-22 01:54:00,52.1,39.5,30.27,SE,131,2.0,8.0,62,0.00,,SKC,0.00,VWS V12.07,2013-04-22 06:54:00,
2013-04-22 01:59:00,52.2,39.6,30.27,SSE,152,1.0,8.0,62,0.00,,SKC,0.00,VWS V12.07,2013-04-22 06:59:00,
2013-04-22 02:04:00,52.3,39.3,30.26,South,181,2.0,4.0,61,0.00,,SKC,0.00,VWS V12.07,2013-04-22 07:04:00,
2013-04-22 02:10:00,52.2,39.6,30.26,SSE,160,0.0,5.0,62,0.00,,SKC,0.00,VWS V12.07,2013-04-22 07:10:00,
2013-04-22 02:15:00,52.0,39.4,30.26,SE,139,1.0,5.0,62,0.00,,SKC,0.00,VWS V12.07,2013-04-22 07:15:00,
2013-04-22 02:20:00,51.9,39.3,30.26,South,179,1.0,5.0,62,0.00,,SKC,0.00,VWS V12.07,2013-04-22 07:20:00,
2013-04-22 02:25:00,51.8,39.2,30.26,SE,136,2.0,5.0,62,0.00,,SKC,0.00,VWS V12.07,2013-04-22 07:25:00,
2013-04-22 02:30:00,51.7,39.1,30.26,SSE,148,1.0,5.0,62,0.00,,SKC,0.00,VWS V12.07,2013-04-22 07:30:00,
2013-04-22 02:36:00,51.7,39.1,30.25,South,179,1.0,6.0,62,0.00,,SKC,0.00,VWS V12.07,2013-04-22 07:36:00,
2013-04-22 02:43:00,51.5,38.9,30.25,SE,134,2.0,6.0,62,0.00,,SKC,0.00,VWS V12.07,2013-04-22 07:43:00,
2013-04-22 02:48:00,51.4,38.8,30.25,SSE,155,0.0,6.0,62,0.00,,SKC,0.00,VWS V12.07,2013-04-22 07:48:00,
2013-04-22 02:54:00,51.4,38.8,30.25,SSE,153,4.0,6.0,62,0.00,,SKC,0.00,VWS V12.07,2013-04-22 07:54:00,
2013-04-22 03:00:00,51.4,38.8,30.25,SSE,167,4.0,10.0,62,0.00,,SKC,0.00,VWS V12.07,2013-04-22 08:00:00,
2013-04-22 03:05:00,51.5,38.9,30.24,SSE,153,3.0,6.0,62,0.00,,SKC,0.00,VWS V12.07,2013-04-22 08:05:00,
2013-04-22 03:11:00,51.4,38.8,30.24,SE,137,4.0,8.0,62,0.00,,SKC,0.00,VWS V12.07,2013-04-22 08:11:00,
2013-04-22 03:18:00,51.2,38.6,30.24,SE,138,2.0,8.0,62,0.00,,SKC,0.00,VWS V12.07,2013-04-22 08:18:00,
2013-04-22 03:23:00,51.0,38.9,30.24,SE,139,4.0,8.0,63,0.00,,SKC,0.00,VWS V12.07,2013-04-22 08:23:00,
2013-04-22 03:28:00,50.9,38.8,30.24,SSE,160,3.0,8.0,63,0.00,,SKC,0.00,VWS V12.07,2013-04-22 08:28:00,
2013-04-22 03:35:00,50.7,39.0,30.24,SE,139,1.0,6.0,64,0.00,,SKC,0.00,VWS V12.07,2013-04-22 08:35:00,
2013-04-22 03:43:00,50.5,38.8,30.23,SSE,149,2.0,7.0,64,0.00,,SKC,0.00,VWS V12.07,2013-04-22 08:43:00,
2013-04-22 03:48:00,50.4,38.7,30.23,SSE,157,3.0,7.0,64,0.00,,SKC,0.00,VWS V12.07,2013-04-22 08:48:00,
2013-04-22 03:54:00,50.4,38.7,30.23,SE,132,4.0,7.0,64,0.00,,SKC,0.00,VWS V12.07,2013-04-22 08:54:00,
2013-04-22 04:00:00,50.3,38.6,30.23,SE,137,4.0,7.0,64,0.00,,SKC,0.00,VWS V12.07,2013-04-22 09:00:00,
2013-04-22 04:06:00,50.3,38.6,30.23,South,177,3.0,6.0,64,0.00,,SKC,0.00,VWS V12.07,2013-04-22 09:06:00,
2013-04-22 04:13:00,50.2,38.5,30.23,SW,214,3.0,6.0,64,0.00,,SKC,0.00,VWS V12.07,2013-04-22 09:13:00,
2013-04-22 04:18:00,50.3,38.6,30.23,SSE,167,1.0,6.0,64,0.00,,SKC,0.00,VWS V12.07,2013-04-22 09:18:00,
2013-04-22 04:23:00,50.4,38.7,30.23,South,169,2.0,7.0,64,0.00,,SKC,0.00,VWS V12.07,2013-04-22 09:23:00,
2013-04-22 04:28:00,50.4,38.3,30.23,SE,136,2.0,7.0,63,0.00,,SKC,0.00,VWS V12.07,2013-04-22 09:28:00,
2013-04-22 04:33:00,50.5,38.4,30.23,SE,134,3.0,5.0,63,0.00,,SKC,0.00,VWS V12.07,2013-04-22 09:33:00,
2013-04-22 04:38:00,50.5,38.4,30.23,SSE,160,2.0,6.0,63,0.00,,SKC,0.00,VWS V12.07,2013-04-22 09:38:00,
2013-04-22 04:44:00,50.5,38.4,30.23,SSE,150,0.0,6.0,63,0.00,,SKC,0.00,VWS V12.07,2013-04-22 09:44:00,
2013-04-22 04:49:00,50.4,38.3,30.23,SE,137,4.0,6.0,63,0.00,,SKC,0.00,VWS V12.07,2013-04-22 09:49:00,
2013-04-22 04:55:00,50.4,37.9,30.23,SE,143,2.0,7.0,62,0.00,,SKC,0.00,VWS V12.07,2013-04-22 09:55:00,
2013-04-22 05:00:00,50.4,37.9,30.22,SSE,163,4.0,7.0,62,0.00,,SKC,0.00,VWS V12.07,2013-04-22 10:00:00,
2013-04-22 05:06:00,50.4,37.9,30.22,SE,134,3.0,7.0,62,0.00,,SKC,0.00,VWS V12.07,2013-04-22 10:06:00,
2013-04-22 05:13:00,50.3,37.8,30.22,SSE,149,1.0,7.0,62,0.00,,SKC,0.00,VWS V12.07,2013-04-22 10:13:00,
2013-04-22 05:18:00,50.1,37.6,30.22,SE,134,1.0,7.0,62,0.00,,SKC,0.00,VWS V12.07,2013-04-22 10:18:00,
2013-04-22 05:23:00,49.9,37.4,30.22,South,169,2.0,7.0,62,0.00,,SKC,0.00,VWS V12.07,2013-04-22 10:23:00,
2013-04-22 05:29:00,49.6,37.5,30.22,SSE,151,1.0,7.0,63,0.00,,SKC,0.00,VWS V12.07,2013-04-22 10:29:00,
2013-04-22 05:35:00,49.4,37.3,30.22,SSE,160,1.0,5.0,63,0.00,,SKC,0.00,VWS V12.07,2013-04-22 10:35:00,
2013-04-22 05:40:00,49.1,37.1,30.22,SE,129,3.0,5.0,63,0.00,,SKC,0.00,VWS V12.07,2013-04-22 10:40:00,
2013-04-22 05:46:00,48.9,36.9,30.22,SE,138,1.0,5.0,63,0.00,,SKC,0.00,VWS V12.07,2013-04-22 10:46:00,
2013-04-22 05:53:00,48.7,36.7,30.22,South,174,1.0,5.0,63,0.00,,SKC,0.00,VWS V12.07,2013-04-22 10:53:00,
2013-04-22 05:58:00,48.6,37.0,30.22,SE,125,0.0,5.0,64,0.00,,SKC,0.00,VWS V12.07,2013-04-22 10:58:00,
2013-04-22 06:03:00,48.4,36.8,30.22,SSE,155,1.0,3.0,64,0.00,,SKC,0.00,VWS V12.07,2013-04-22 11:03:00,
2013-04-22 06:09:00,48.3,36.7,30.22,SSE,156,0.0,4.0,64,0.00,,SKC,0.00,VWS V12.07,2013-04-22 11:09:00,
2013-04-22 06:14:00,48.2,36.6,30.22,SSE,160,2.0,5.0,64,0.00,,SKC,0.00,VWS V12.07,2013-04-22 11:14:00,
2013-04-22 06:20:00,48.1,36.5,30.22,South,169,4.0,5.0,64,0.00,,SKC,0.00,VWS V12.07,2013-04-22 11:20:00,
2013-04-22 06:25:00,48.0,36.4,30.22,SSE,148,2.0,5.0,64,0.00,,SKC,0.00,VWS V12.07,2013-04-22 11:25:00,
2013-04-22 06:30:00,48.1,36.5,30.22,SSE,150,0.0,5.0,64,0.00,,SKC,0.00,VWS V12.07,2013-04-22 11:30:00,
2013-04-22 06:36:00,48.3,36.7,30.22,South,183,2.0,7.0,64,0.00,,SKC,0.00,VWS V12.07,2013-04-22 11:36:00,
2013-04-22 06:43:00,48.6,36.6,30.22,South,180,4.0,7.0,63,0.00,,SKC,0.00,VWS V12.07,2013-04-22 11:43:00,
2013-04-22 06:48:00,49.1,37.1,30.22,SE,144,2.0,7.0,63,0.00,,SKC,0.00,VWS V12.07,2013-04-22 11:48:00,
2013-04-22 06:53:00,49.6,37.1,30.22,SSE,150,5.0,7.0,62,0.00,,SKC,0.00,VWS V12.07,2013-04-22 11:53:00,
2013-04-22 07:00:00,50.2,37.3,30.22,SE,141,1.0,7.0,61,0.00,,SKC,0.00,VWS V12.07,2013-04-22 12:00:00,
2013-04-22 07:06:00,50.4,37.5,30.22,SSE,165,1.0,6.0,61,0.00,,SKC,0.00,VWS V12.07,2013-04-22 12:06:00,
2013-04-22 07:11:00,50.6,37.7,30.22,SE,139,2.0,6.0,61,0.00,,SKC,0.00,VWS V12.07,2013-04-22 12:11:00,
2013-04-22 07:18:00,51.0,37.6,30.22,SW,235,1.0,6.0,60,0.00,,SKC,0.00,VWS V12.07,2013-04-22 12:18:00,
2013-04-22 07:23:00,51.2,37.4,30.23,SE,142,2.0,6.0,59,0.00,,SKC,0.00,VWS V12.07,2013-04-22 12:23:00,
2013-04-22 07:29:00,51.2,37.8,30.23,ESE,117,2.0,6.0,60,0.00,,SKC,0.00,VWS V12.07,2013-04-22 12:29:00,
2013-04-22 07:35:00,51.2,37.8,30.23,SE,139,4.0,5.0,60,0.00,,SKC,0.00,VWS V12.07,2013-04-22 12:35:00,
2013-04-22 07:41:00,51.6,38.2,30.22,SSE,153,3.0,6.0,60,0.00,,SKC,0.00,VWS V12.07,2013-04-22 12:41:00,
2013-04-22 07:48:00,51.9,38.0,30.22,SW,221,2.0,6.0,59,0.00,,SKC,0.00,VWS V12.07,2013-04-22 12:48:00,
2013-04-22 07:53:00,52.3,38.4,30.22,South,178,1.0,7.0,59,0.00,,SKC,0.00,VWS V12.07,2013-04-22 12:53:00,
2013-04-22 07:59:00,53.0,39.1,30.22,South,169,3.0,7.0,59,0.00,,SKC,0.00,VWS V12.07,2013-04-22 12:59:00,
2013-04-22 08:04:00,53.4,39.0,30.22,SSW,203,3.0,9.0,58,0.00,,SKC,0.00,VWS V12.07,2013-04-22 13:04:00,
2013-04-22 08:10:00,53.7,38.8,30.21,SSE,160,3.0,9.0,57,0.00,,SKC,0.00,VWS V12.07,2013-04-22 13:10:00,
2013-04-22 08:16:00,54.0,38.7,30.21,South,172,3.0,9.0,56,0.00,,SKC,0.00,VWS V12.07,2013-04-22 13:16:00,
2013-04-22 08:23:00,54.0,38.2,30.21,SSE,157,7.0,10.0,55,0.00,,SKC,0.00,VWS V12.07,2013-04-22 13:23:00,
2013-04-22 08:29:00,53.9,38.1,30.21,SSE,162,5.0,10.0,55,0.00,,SKC,0.00,VWS V12.07,2013-04-22 13:29:00,
2013-04-22 08:35:00,54.1,38.8,30.21,SSE,165,0.0,6.0,56,0.00,,SKC,0.00,VWS V12.07,2013-04-22 13:35:00,
2013-04-22 08:41:00,54.8,38.5,30.20,SE,141,3.0,11.0,54,0.00,,SKC,0.00,VWS V12.07,2013-04-22 13:41:00,
2013-04-22 08:48:00,55.7,39.3,30.20,South,191,5.0,11.0,54,0.00,,SKC,0.00,VWS V12.07,2013-04-22 13:48:00,
2013-04-22 08:54:00,56.3,39.4,30.20,SSW,192,7.0,11.0,53,0.00,,SKC,0.00,VWS V12.07,2013-04-22 13:54:00,
2013-04-22 09:00:00,56.7,38.8,30.20,SSW,194,3.0,11.0,51,0.00,,SKC,0.00,VWS V12.07,2013-04-22 14:00:00,
2013-04-22 09:06:00,57.2,39.2,30.20,SE,134,2.0,9.0,51,0.00,,SKC,0.00,VWS V12.07,2013-04-22 14:06:00,
2013-04-22 09:13:00,57.6,39.6,30.19,SSE,163,1.0,9.0,51,0.00,,SKC,0.00,VWS V12.07,2013-04-22 14:13:00,
2013-04-22 09:19:00,57.9,39.4,30.19,SSW,193,6.0,10.0,50,0.00,,SKC,0.00,VWS V12.07,2013-04-22 14:19:00,
2013-04-22 09:25:00,58.1,39.6,30.19,South,169,5.0,10.0,50,0.00,,SKC,0.00,VWS V12.07,2013-04-22 14:25:00,
2013-04-22 09:31:00,58.3,39.8,30.19,South,190,2.0,5.0,50,0.00,,SKC,0.00,VWS V12.07,2013-04-22 14:31:00,
2013-04-22 09:38:00,59.2,39.5,30.18,SSW,194,8.0,8.0,48,0.00,,SKC,0.00,VWS V12.07,2013-04-22 14:38:00,
2013-04-22 09:44:00,59.7,40.5,30.18,SE,130,5.0,8.0,49,0.00,,SKC,0.00,VWS V12.07,2013-04-22 14:44:00,
2013-04-22 09:50:00,60.0,39.2,30.18,SW,231,4.0,8.0,46,0.00,,SKC,0.00,VWS V12.07,2013-04-22 14:50:00,
2013-04-22 09:56:00,60.6,39.2,30.18,SSE,153,4.0,8.0,45,0.00,,SKC,0.00,VWS V12.07,2013-04-22 14:56:00,
2013-04-22 10:03:00,61.2,40.3,30.18,SSW,205,3.0,8.0,46,0.00,,SKC,0.00,VWS V12.07,2013-04-22 15:03:00,
2013-04-22 10:08:00,61.5,39.4,30.18,SSW,200,9.0,11.0,44,0.00,,SKC,0.00,VWS V12.07,2013-04-22 15:08:00,
2013-04-22 10:14:00,61.8,39.1,30.19,SSW,198,3.0,11.0,43,0.00,,SKC,0.00,VWS V12.07,2013-04-22 15:14:00,
2013-04-22 10:21:00,62.5,40.9,30.19,South,169,5.0,11.0,45,0.00,,SKC,0.00,VWS V12.07,2013-04-22 15:21:00,
2013-04-22 10:28:00,63.1,40.9,30.19,SW,215,0.0,11.0,44,0.00,,SKC,0.00,VWS V12.07,2013-04-22 15:28:00,
2013-04-22 10:33:00,63.4,41.1,30.19,SW,218,0.0,6.0,44,0.00,,SKC,0.00,VWS V12.07,2013-04-22 15:33:00,
2013-04-22 10:39:00,64.3,41.3,30.19,South,188,5.0,9.0,43,0.00,,SKC,0.00,VWS V12.07,2013-04-22 15:39:00,
2013-04-22 10:45:00,64.5,39.7,30.19,SSW,193,0.0,10.0,40,0.00,,SKC,0.00,VWS V12.07,2013-04-22 15:45:00,
2013-04-22 10:51:00,64.9,40.0,30.19,South,186,6.0,10.0,40,0.00,,SKC,0.00,VWS V12.07,2013-04-22 15:51:00,
2013-04-22 10:58:00,65.0,40.1,30.19,SSE,148,3.0,10.0,40,0.00,,SKC,0.00,VWS V12.07,2013-04-22 15:58:00,
2013-04-22 11:04:00,65.4,40.5,30.18,SW,236,4.0,5.0,40,0.00,,SKC,0.00,VWS V12.07,2013-04-22 16:04:00,
2013-04-22 11:11:00,64.9,40.7,30.18,SSE,150,9.0,11.0,41,0.00,,SKC,0.00,VWS V12.07,2013-04-22 16:11:00,
2013-04-22 11:18:00,64.9,40.7,30.18,SE,135,2.0,11.0,41,0.00,,SKC,0.00,VWS V12.07,2013-04-22 16:18:00,
2013-04-22 11:24:00,64.9,40.7,30.18,SSW,197,2.0,11.0,41,0.00,,SKC,0.00,VWS V12.07,2013-04-22 16:24:00,
2013-04-22 11:31:00,64.8,40.6,30.18,WSW,246,4.0,6.0,41,0.00,,SKC,0.00,VWS V12.07,2013-04-22 16:31:00,
2013-04-22 11:38:00,64.7,40.5,30.17,SW,235,2.0,10.0,41,0.00,,SKC,0.00,VWS V12.07,2013-04-22 16:38:00,
2013-04-22 11:44:00,65.2,41.5,30.17,WSW,240,3.0,10.0,42,0.00,,SKC,0.00,VWS V12.07,2013-04-22 16:44:00,
2013-04-22 11:51:00,65.6,42.5,30.17,South,184,4.0,10.0,43,0.00,,SKC,0.00,VWS V12.07,2013-04-22 16:51:00,
2013-04-22 11:58:00,65.9,42.8,30.17,ESE,120,1.0,10.0,43,0.00,,SKC,0.00,VWS V12.07,2013-04-22 16:58:00,
2013-04-22 12:04:00,65.6,41.9,30.16,SW,219,1.0,9.0,42,0.00,,SKC,0.00,VWS V12.07,2013-04-22 17:04:00,
2013-04-22 12:11:00,65.6,42.5,30.16,SW,222,4.0,9.0,43,0.00,,SKC,0.00,VWS V12.07,2013-04-22 17:11:00,
2013-04-22 12:18:00,65.5,42.4,30.16,West,260,0.0,9.0,43,0.00,,SKC,0.00,VWS V12.07,2013-04-22 17:18:00,
2013-04-22 12:23:00,65.5,41.8,30.16,SSE,151,3.0,9.0,42,0.00,,SKC,0.00,VWS V12.07,2013-04-22 17:23:00,
2013-04-22 12:29:00,65.8,43.3,30.15,NNE,15,3.0,9.0,44,0.00,,SKC,0.00,VWS V12.07,2013-04-22 17:29:00,
2013-04-22 12:35:00,66.3,42.5,30.15,WSW,243,6.0,7.0,42,0.00,,SKC,0.00,VWS V12.07,2013-04-22 17:35:00,
2013-04-22 12:41:00,66.8,43.0,30.14,SW,226,0.0,7.0,42,0.00,,SKC,0.00,VWS V12.07,2013-04-22 17:41:00,
2013-04-22 12:48:00,67.9,42.7,30.14,SW,225,3.0,8.0,40,0.00,,SKC,0.00,VWS V12.07,2013-04-22 17:48:00,
2013-04-22 12:54:00,68.1,42.2,30.13,SE,136,4.0,11.0,39,0.00,,SKC,0.00,VWS V12.07,2013-04-22 17:54:00,
2013-04-22 13:00:00,68.4,43.2,30.13,SE,142,6.0,12.0,40,0.00,,SKC,0.00,VWS V12.07,2013-04-22 18:00:00,
2013-04-22 13:06:00,68.0,41.5,30.12,SE,139,6.0,11.0,38,0.00,,SKC,0.00,VWS V12.07,2013-04-22 18:06:00,
2013-04-22 13:13:00,67.8,43.3,30.11,WSW,240,2.0,11.0,41,0.00,,SKC,0.00,VWS V12.07,2013-04-22 18:13:00,
2013-04-22 13:19:00,68.8,43.5,30.11,ESE,115,5.0,11.0,40,0.00,,SKC,0.00,VWS V12.07,2013-04-22 18:19:00,
2013-04-22 13:26:00,68.5,42.6,30.11,SE,130,1.0,11.0,39,0.00,,SKC,0.00,VWS V12.07,2013-04-22 18:26:00,
2013-04-22 13:33:00,68.8,41.5,30.11,SSE,160,6.0,13.0,37,0.00,,SKC,0.00,VWS V12.07,2013-04-22 18:33:00,
2013-04-22 13:39:00,69.0,43.0,30.10,SE,136,7.0,13.0,39,0.00,,SKC,0.00,VWS V12.07,2013-04-22 18:39:00,
2013-04-22 13:45:00,69.3,42.6,30.10,SSE,149,3.0,13.0,38,0.00,,SKC,0.00,VWS V12.07,2013-04-22 18:45:00,
2013-04-22 13:51:00,69.9,43.2,30.10,SSE,148,5.0,13.0,38,0.00,,SKC,0.00,VWS V12.07,2013-04-22 18:51:00,
2013-04-22 13:58:00,69.3,41.9,30.09,ESE,105,9.0,14.0,37,0.00,,SKC,0.00,VWS V12.07,2013-04-22 18:58:00,
2013-04-22 14:03:00,69.3,41.2,30.09,ESE,102,7.0,9.0,36,0.00,,SKC,0.00,VWS V12.07,2013-04-22 19:03:00,
2013-04-22 14:09:00,69.3,39.0,30.09,ESE,123,8.0,13.0,33,0.00,,SKC,0.00,VWS V12.07,2013-04-22 19:09:00,
2013-04-22 14:16:00,68.7,40.0,30.08,SE,126,6.0,15.0,35,0.00,,SKC,0.00,VWS V12.07,2013-04-22 19:16:00,
2013-04-22 14:23:00,69.2,41.8,30.07,SSE,161,10.0,15.0,37,0.00,,SKC,0.00,VWS V12.07,2013-04-22 19:23:00,
2013-04-22 14:29:00,69.6,40.0,30.07,SW,215,5.0,15.0,34,0.00,,SKC,0.00,VWS V12.07,2013-04-22 19:29:00,
2013-04-22 14:36:00,69.4,41.3,30.06,ESE,112,10.0,14.0,36,0.00,,SKC,0.00,VWS V12.07,2013-04-22 19:36:00,
2013-04-22 14:43:00,68.8,41.5,30.06,ESE,117,5.0,14.0,37,0.00,,SKC,0.00,VWS V12.07,2013-04-22 19:43:00,
2013-04-22 14:49:00,68.7,44.1,30.06,East,101,5.0,14.0,41,0.00,,SKC,0.00,VWS V12.07,2013-04-22 19:49:00,
2013-04-22 14:56:00,68.8,42.9,30.05,East,97,8.0,14.0,39,0.00,,SKC,0.00,VWS V12.07,2013-04-22 19:56:00,
2013-04-22 15:03:00,68.2,41.7,30.05,SE,141,6.0,10.0,38,0.00,,SKC,0.00,VWS V12.07,2013-04-22 20:03:00,
2013-04-22 15:09:00,68.5,43.2,30.05,SE,136,12.0,12.0,40,0.00,,SKC,0.00,VWS V12.07,2013-04-22 20:09:00,
2013-04-22 15:16:00,69.0,45.0,30.04,SE,138,5.0,14.0,42,0.00,,SKC,0.00,VWS V12.07,2013-04-22 20:16:00,
2013-04-22 15:23:00,69.0,43.7,30.04,SE,134,9.0,16.0,40,0.00,,SKC,0.00,VWS V12.07,2013-04-22 20:23:00,
2013-04-22 15:29:00,68.6,45.2,30.03,ESE,117,11.0,16.0,43,0.00,,SKC,0.00,VWS V12.07,2013-04-22 20:29:00,
2013-04-22 15:36:00,68.8,43.5,30.03,SE,144,5.0,13.0,40,0.00,,SKC,0.00,VWS V12.07,2013-04-22 20:36:00,
2013-04-22 15:43:00,68.6,42.7,30.03,ESE,115,2.0,13.0,39,0.00,,SKC,0.00,VWS V12.07,2013-04-22 20:43:00,
2013-04-22 15:49:00,68.7,44.1,30.02,SSE,160,7.0,15.0,41,0.00,,SKC,0.00,VWS V12.07,2013-04-22 20:49:00,
2013-04-22 15:56:00,68.5,42.6,30.01,SSE,150,8.0,15.0,39,0.00,,SKC,0.00,VWS V12.07,2013-04-22 20:56:00,
2013-04-22 16:03:00,68.4,44.4,30.01,South,169,5.0,6.0,42,0.00,,SKC,0.00,VWS V12.07,2013-04-22 21:03:00,
2013-04-22 16:09:00,69.2,40.4,30.01,South,179,4.0,12.0,35,0.00,,SKC,0.00,VWS V12.07,2013-04-22 21:09:00,
2013-04-22 16:16:00,69.9,40.3,30.01,South,187,4.0,12.0,34,0.00,,SKC,0.00,VWS V12.07,2013-04-22 21:16:00,
2013-04-22 16:23:00,69.3,41.9,30.01,SE,132,3.0,13.0,37,0.00,,SKC,0.00,VWS V12.07,2013-04-22 21:23:00,
2013-04-22 16:29:00,69.0,41.0,30.00,SSE,148,8.0,14.0,36,0.00,,SKC,0.00,VWS V12.07,2013-04-22 21:29:00,
2013-04-22 16:36:00,68.9,40.9,30.00,South,175,8.0,10.0,36,0.00,,SKC,0.00,VWS V12.07,2013-04-22 21:36:00,
2013-04-22 16:43:00,69.2,41.8,30.01,SSE,167,3.0,10.0,37,0.00,,SKC,0.00,VWS V12.07,2013-04-22 21:43:00,
2013-04-22 16:49:00,69.6,42.2,30.00,SE,134,2.0,10.0,37,0.00,,SKC,0.00,VWS V12.07,2013-04-22 21:49:00,
2013-04-22 16:56:00,69.2,41.1,30.00,West,270,3.0,14.0,36,0.00,,SKC,0.00,VWS V12.07,2013-04-22 21:56:00,
2013-04-22 17:03:00,68.9,40.9,30.00,SE,145,7.0,13.0,36,0.00,,SKC,0.00,VWS V12.07,2013-04-22 22:03:00,
2013-04-22 17:09:00,68.8,42.2,30.00,SSE,165,7.0,13.0,38,0.00,,SKC,0.00,VWS V12.07,2013-04-22 22:09:00,
2013-04-22 17:16:00,69.1,41.8,29.99,South,182,5.0,13.0,37,0.00,,SKC,0.00,VWS V12.07,2013-04-22 22:16:00,
2013-04-22 17:23:00,69.6,42.9,29.99,ESE,113,7.0,13.0,38,0.00,,SKC,0.00,VWS V12.07,2013-04-22 22:23:00,
2013-04-22 17:29:00,69.7,42.3,29.99,South,171,4.0,13.0,37,0.00,,SKC,0.00,VWS V12.07,2013-04-22 22:29:00,
2013-04-22 17:36:00,69.4,42.7,29.98,SSE,152,5.0,11.0,38,0.00,,SKC,0.00,VWS V12.07,2013-04-22 22:36:00,
2013-04-22 17:43:00,69.0,41.7,29.99,SSE,149,6.0,11.0,37,0.00,,SKC,0.00,VWS V12.07,2013-04-22 22:43:00,
2013-04-22 17:49:00,68.9,41.6,29.98,SE,134,11.0,12.0,37,0.00,,SKC,0.00,VWS V12.07,2013-04-22 22:49:00,
2013-04-22 17:56:00,68.3,42.4,29.98,SE,136,7.0,12.0,39,0.00,,SKC,0.00,VWS V12.07,2013-04-22 22:56:00,
2013-04-22 18:03:00,67.4,42.9,29.97,SE,138,4.0,10.0,41,0.00,,SKC,0.00,VWS V12.07,2013-04-22 23:03:00,
2013-04-22 18:09:00,67.0,42.5,29.97,SE,145,11.0,14.0,41,0.00,,SKC,0.00,VWS V12.07,2013-04-22 23:09:00,
2013-04-22 18:15:00,66.8,43.0,29.96,SE,126,7.0,14.0,42,0.00,,SKC,0.00,VWS V12.07,2013-04-22 23:15:00,
2013-04-22 18:21:00,66.7,42.9,29.97,East,94,8.0,14.0,42,0.00,,SKC,0.00,VWS V12.07,2013-04-22 23:21:00,
2013-04-22 18:28:00,66.6,43.4,29.97,SE,138,3.0,14.0,43,0.00,,SKC,0.00,VWS V12.07,2013-04-22 23:28:00,
2013-04-22 18:34:00,66.5,42.7,29.97,SE,136,3.0,8.0,42,0.00,,SKC,0.00,VWS V12.07,2013-04-22 23:34:00,
2013-04-22 18:41:00,66.2,43.1,29.97,ESE,120,5.0,10.0,43,0.00,,SKC,0.00,VWS V12.07,2013-04-22 23:41:00,
2013-04-22 18:48:00,65.9,42.8,29.97,SSE,160,4.0,10.0,43,0.00,,SKC,0.00,VWS V12.07,2013-04-22 23:48:00,
2013-04-22 18:54:00,65.6,43.7,29.97,ESE,115,5.0,10.0,45,0.00,,SKC,0.00,VWS V12.07,2013-04-22 23:54:00,
2013-04-22 19:01:00,65.4,43.5,29.96,SE,125,7.0,8.0,45,0.00,,SKC,0.00,VWS V12.07,2013-04-23 00:01:00,
2013-04-22 19:08:00,65.1,43.8,29.96,ESE,122,4.0,8.0,46,0.00,,SKC,0.00,VWS V12.07,2013-04-23 00:08:00,
2013-04-22 19:14:00,64.9,43.7,29.96,SE,128,3.0,8.0,46,0.00,,SKC,0.00,VWS V12.07,2013-04-23 00:14:00,
2013-04-22 19:22:00,64.6,43.4,29.96,East,84,2.0,8.0,46,0.00,,SKC,0.00,VWS V12.07,2013-04-23 00:22:00,
2013-04-22 19:28:00,64.5,43.3,29.96,East,99,6.0,8.0,46,0.00,,SKC,0.00,VWS V12.07,2013-04-23 00:28:00,
2013-04-22 19:33:00,64.2,43.6,29.96,ESE,103,4.0,6.0,47,0.00,,SKC,0.00,VWS V12.07,2013-04-23 00:33:00,
2013-04-22 19:39:00,64.0,43.9,29.96,SE,134,2.0,8.0,48,0.00,,SKC,0.00,VWS V12.07,2013-04-23 00:39:00,
2013-04-22 19:46:00,63.7,44.2,29.96,ESE,115,6.0,9.0,49,0.00,,SKC,0.00,VWS V12.07,2013-04-23 00:46:00,
2013-04-22 19:53:00,63.6,44.1,29.96,SE,136,3.0,9.0,49,0.00,,SKC,0.00,VWS V12.07,2013-04-23 00:53:00,
2013-04-22 19:58:00,63.6,44.1,29.97,SE,128,5.0,9.0,49,0.00,,SKC,0.00,VWS V12.07,2013-04-23 00:58:00,
2013-04-22 20:04:00,63.6,44.1,29.97,SE,140,3.0,6.0,49,0.00,,SKC,0.00,VWS V12.07,2013-04-23 01:04:00,
2013-04-22 20:11:00,63.7,44.2,29.97,SE,131,3.0,8.0,49,0.00,,SKC,0.00,VWS V12.07,2013-04-23 01:11:00,
2013-04-22 20:18:00,63.7,44.2,29.98,SE,134,4.0,8.0,49,0.00,,SKC,0.00,VWS V12.07,2013-04-23 01:18:00,
2013-04-22 20:24:00,63.7,44.7,29.98,SE,125,4.0,8.0,50,0.00,,SKC,0.00,VWS V12.07,2013-04-23 01:24:00,
2013-04-22 20:31:00,63.7,44.7,29.98,ESE,107,5.0,5.0,50,0.00,,SKC,0.00,VWS V12.07,2013-04-23 01:31:00,
2013-04-22 20:38:00,63.5,45.1,29.99,WSW,249,0.0,7.0,51,0.00,,SKC,0.00,VWS V12.07,2013-04-23 01:38:00,
2013-04-22 20:44:00,63.2,44.8,29.99,SW,218,0.0,7.0,51,0.00,,SKC,0.00,VWS V12.07,2013-04-23 01:44:00,
2013-04-22 20:51:00,62.8,44.9,30.00,SW,219,0.0,7.0,52,0.00,,SKC,0.00,VWS V12.07,2013-04-23 01:51:00,
2013-04-22 20:58:00,62.9,45.0,30.00,West,276,0.0,7.0,52,0.00,,SKC,0.00,VWS V12.07,2013-04-23 01:58:00,
2013-04-22 21:04:00,63.2,45.3,30.00,SSE,165,0.0,4.0,52,0.00,,SKC,0.00,VWS V12.07,2013-04-23 02:04:00,
2013-04-22 21:11:00,63.5,44.5,30.01,WNW,291,1.0,5.0,50,0.00,,SKC,0.00,VWS V12.07,2013-04-23 02:11:00,
2013-04-22 21:18:00,63.8,44.3,30.01,SSW,211,5.0,9.0,49,0.00,,SKC,0.00,VWS V12.07,2013-04-23 02:18:00,
2013-04-22 21:24:00,64.2,43.0,30.01,WSW,237,2.0,9.0,46,0.00,,SKC,0.00,VWS V12.07,2013-04-23 02:24:00,
2013-04-22 21:31:00,64.3,43.1,30.01,WSW,252,3.0,4.0,46,0.00,,SKC,0.00,VWS V12.07,2013-04-23 02:31:00,
2013-04-22 21:38:00,64.4,42.6,30.01,NW,305,0.0,7.0,45,0.00,,SKC,0.00,VWS V12.07,2013-04-23 02:38:00,
2013-04-22 21:44:00,64.4,42.6,30.01,WSW,239,0.0,8.0,45,0.00,,SKC,0.00,VWS V12.07,2013-04-23 02:44:00,
2013-04-22 21:51:00,64.2,42.4,30.01,WNW,300,1.0,8.0,45,0.00,,SKC,0.00,VWS V12.07,2013-04-23 02:51:00,
2013-04-22 21:58:00,63.9,42.7,30.01,NNW,328,0.0,8.0,46,0.00,,SKC,0.00,VWS V12.07,2013-04-23 02:58:00,
2013-04-22 22:04:00,63.8,42.6,30.01,NNW,327,0.0,0.0,46,0.00,,SKC,0.00,VWS V12.07,2013-04-23 03:04:00,
2013-04-22 22:11:00,63.7,42.5,30.01,NNW,327,0.0,1.0,46,0.00,,SKC,0.00,VWS V12.07,2013-04-23 03:11:00,
2013-04-22 22:18:00,63.3,42.2,30.01,NNW,346,0.0,1.0,46,0.00,,SKC,0.00,VWS V12.07,2013-04-23 03:18:00,
2013-04-22 22:24:00,63.0,42.5,30.01,NNW,347,0.0,1.0,47,0.00,,SKC,0.00,VWS V12.07,2013-04-23 03:24:00,
2013-04-22 22:30:00,62.7,42.8,30.01,NNE,32,0.0,1.0,48,0.00,,SKC,0.00,VWS V12.07,2013-04-23 03:30:00,
2013-04-22 22:36:00,62.6,42.7,30.01,NNE,32,0.0,0.0,48,0.00,,SKC,0.00,VWS V12.07,2013-04-23 03:36:00,
2013-04-22 22:43:00,62.6,42.7,30.01,NNE,32,1.0,1.0,48,0.00,,SKC,0.00,VWS V12.07,2013-04-23 03:43:00,
2013-04-22 22:49:00,62.4,43.0,30.01,NE,36,0.0,1.0,49,0.00,,SKC,0.00,VWS V12.07,2013-04-23 03:49:00,
2013-04-22 22:55:00,62.2,42.8,30.01,NE,36,0.0,1.0,49,0.00,,SKC,0.00,VWS V12.07,2013-04-23 03:55:00,
2013-04-22 23:01:00,62.0,42.6,30.01,NE,36,0.0,0.0,49,0.00,,SKC,0.00,VWS V12.07,2013-04-23 04:01:00,
2013-04-22 23:06:00,61.8,42.5,30.01,NE,37,0.0,0.0,49,0.00,,SKC,0.00,VWS V12.07,2013-04-23 04:06:00,
2013-04-22 23:09:00,61.7,42.9,30.01,NE,36,0.0,1.0,50,0.00,,SKC,0.00,VWS V12.07,2013-04-23 04:09:00,
2013-04-22 23:13:00,61.6,42.8,30.02,NE,36,0.0,1.0,50,0.00,,SKC,0.00,VWS V12.07,2013-04-23 04:13:00,
2013-04-22 23:19:00,61.3,43.5,30.02,NE,36,0.0,1.0,52,0.00,,SKC,0.00,VWS V12.07,2013-04-23 04:19:00,
2013-04-22 23:26:00,60.9,43.7,30.02,NE,50,0.0,1.0,53,0.00,,SKC,0.00,VWS V12.07,2013-04-23 04:26:00,
2013-04-22 23:33:00,60.7,43.5,30.02,NE,44,1.0,1.0,53,0.00,,SKC,0.00,VWS V12.07,2013-04-23 04:33:00,
2013-04-22 23:38:00,60.8,43.6,30.02,NE,44,0.0,1.0,53,0.00,,SKC,0.00,VWS V12.07,2013-04-23 04:38:00,
2013-04-22 23:45:00,60.7,43.5,30.02,NNE,33,0.0,1.0,53,0.00,,SKC,0.00,VWS V12.07,2013-04-23 04:45:00,
2013-04-22 23:51:00,60.5,43.8,30.02,NNE,33,0.0,1.0,54,0.00,,SKC,0.00,VWS V12.07,2013-04-23 04:51:00,
2013-04-22 23:58:00,60.5,43.8,30.02,NNE,32,0.0,1.0,54,0.00,,SKC,0.00,VWS V12.07,2013-04-23 04:58:00,